AirNav   Air Wisconsin Up To $57,000 Bonus
 
 1085 users online  

86F Carnegie Municipal Airport
Carnegie, Oklahoma, USA

GOING TO CARNEGIE?


FAA INFORMATION EFFECTIVE 07 NOVEMBER 2019

Location

FAA Identifier: 86F
Lat/Long: 35-07-25.4000N 098-34-30.9000W
35-07.423333N 098-34.515000W
35.1237222,-98.5752500
(estimated)
Elevation: 1354 ft. / 413 m (estimated)
Variation: 07E (1985)
From city: 2 miles NE of CARNEGIE, OK
Time zone: UTC -6 (UTC -5 during Daylight Saving Time)
Zip code: 73015

Airport Operations

Airport use: Open to the public
Activation date: 12/1972
Control tower: no
ARTCC: FORT WORTH CENTER
FSS: MC ALESTER FLIGHT SERVICE STATION
NOTAMs facility: MLC (NOTAM-D service available)
Attendance: UNATNDD
Wind indicator: yes
Segmented circle: no
Lights: ACTVT MIRL RY 17/35 - CTAF.

Airport Communications

CTAF: 122.9

Nearby radio navigation aids

VOR radial/distance  VOR name  Freq  Var
HBRr047/28.5HOBART VORTAC111.8010E
BFVr097/31.7BURNS FLAT VORTAC110.0005E
LAWr339/38.5LAWTON VOR/DME109.4009E

 
NDB name  Hdg/Dist  Freq  Var  ID
TRAIL329/22.238809EOFZ --- ..-. --..
POST337/32.042508EPFL .--. ..-. .-..

Airport Services

Parking: tiedowns
Airframe service: NONE
Powerplant service: NONE
Bottled oxygen: NONE
Bulk oxygen: NONE

Runway Information

Runway 17/35

Dimensions: 3000 x 60 ft. / 914 x 18 m
Surface: asphalt/concrete, in fair condition
Weight bearing capacity: 
Single wheel: 11.0
Runway edge lights: medium intensity
Gradient: S.
RUNWAY 17  RUNWAY 35
Latitude: 35-07.670003N35-07.175358N
Longitude: 098-34.512895W098-34.516102W
Elevation: 1342.0 ft.1354.0 ft.
Traffic pattern: leftleft
Runway heading: 173 magnetic, 180 true353 magnetic, 000 true
Markings: basic, in fair conditionbasic, in fair condition
Obstructions: none9 ft. tree, 365 ft. from runway, 50 ft. left of centerline, 18:1 slope to clear
RWY 35 HAS 13 FT TREE 165 FT FROM RWY END AND 65 FT R.

Airport Ownership and Management from official FAA records

Ownership: Publicly-owned
Owner: CITY OF CARNEGIE
PO BOX 1075, 11 E MAIN
CARNEGIE, OK 73015
Phone 580-654-1004
Manager: ROBERT PETTIT
30150 COUNTY STREET 2475
CARNEGIE, OK 73015
Phone (580) 574-3140

Airport Operational Statistics

Aircraft based on the field: 10
Single engine airplanes: 9
Helicopters: 1
    
Aircraft operations: avg 42/month *
60% transient general aviation
40% local general aviation
* for 12-month period ending 12 May 2017

Additional Remarks

FOR CD CTC FORT WORTH ARTCC AT 817-858-7584.

Instrument Procedures

There are no published instrument procedures at 86F.

Some nearby airports with instrument procedures:

KHBR - Hobart Regional Airport (25 nm W)
2O8 - Hinton Municipal Airport (26 nm NE)
KOJA - Thomas P Stafford Airport (26 nm N)
KFSI - Henry Post Army Airfield (Fort Sill) (30 nm S)
KCHK - Chickasha Municipal Airport (30 nm E)
 
Loc | Ops | Rwys | IFR | FBO | Links
Com | Nav | Svcs | Stats | Notes
Area around 86F (Carnegie Municipal Airport)
 
Road maps at: MapQuest Bing Google
 
Aerial photo
WARNING: Photo may not be current or correct
Aerial photo of 86F (Carnegie Municipal Airport)
Photo taken 12-Nov-2005
looking North just before sunset

Do you have a better or more recent aerial photo of Carnegie Municipal Airport that you would like to share? If so, please send us your photo.

 
Sectional chart

 
Airport distance calculator
Flying to Carnegie Municipal Airport? Find the distance to fly.

From to 86F

Sunrise and sunset
Times for 17-Nov-2019
 Local
(UTC-6)
 Zulu
(UTC)
Morning civil twilight06:4512:45
Sunrise07:1213:12
Sunset17:2723:27
Evening civil twilight17:5423:54

Current date and time
Zulu (UTC)  17-Nov-2019 20:00:41
Local (UTC-6)  17-Nov-2019 14:00:41
 
METAR
KHBR 
25nm W 
171953Z AUTO A3006 RMK AO2 SLPNO PWINO FZRANO
KOJA 
26nm N 
171955Z AUTO 35015KT 10SM CLR 16/00 A3006 RMK AO2
KCHK 
30nm E 
171935Z AUTO 36020KT 10SM CLR 17/03 A3001 RMK AO2 T01700025
KCLK 
30nm NW 
171955Z AUTO 35011G19KT 10SM CLR 16/M02 A3006 RMK AO2
KFSI 
31nm S 
171856Z AUTO 02015KT 10SM CLR 18/06 A3004 RMK AO2 SLP170 T01790061
KCSM 
33nm NW 
171953Z AUTO 34013KT 10SM CLR 16/00 A3007 RMK AO2 SLP176 T01560000
KRQO 
35nm NE 
171935Z AUTO 34019KT 10SM CLR 16/02 A3005 RMK AO2 T01580020
KLAW 
35nm S 
171953Z 35014G20KT 10SM CLR 19/03 A3003 RMK AO2 SLP165 T01940028
KRCE 
43nm NE 
171955Z AUTO 01012G19KT 10SM 16/01 A3003 RMK AO2
KLTS 
44nm SW 
171856Z AUTO 01015G20KT 10SM CLR 18/01 A3008 RMK AO2 PK WND 36027/37 SLP183 T01790005 FZRANO $
TAF
NOTAMs
Click for the latest NOTAMs
NOTAMs are issued by the DoD/FAA and will open in a separate window not controlled by AirNav.

 

 
 

Would you like to see your business listed on this page?

 If your business provides an interesting product or service to pilots, flight crews, aircraft, or users of the Carnegie Municipal Airport, you should consider listing it here.  To start the listing process, click on the button below
 
Add a business
 

Other Pages about Carnegie Municipal Airport

Update a link
 
Copyright © AirNav, LLC. All rights reserved. Privacy Policy  Contact